Time,TemperatureF,DewpointF,PressureIn,WindDirection,WindDirectionDegrees,WindSpeedMPH,WindSpeedGustMPH,Humidity,HourlyPrecipIn,Conditions,Clouds,dailyrainin,SoftwareType,DateUTC
2013-01-18 00:01:00,10.9,6.8,28.50,SSE,158,0.0,0.0,83,0.00,,---,0.00,VWS V14.01,2013-01-18 08:01:00,
2013-01-18 00:06:00,11.3,7.2,28.50,SSE,158,0.0,0.0,83,0.00,,---,0.00,VWS V14.01,2013-01-18 08:06:00,
2013-01-18 00:11:00,11.3,7.2,28.50,SSE,158,0.0,0.0,83,0.00,,---,0.00,VWS V14.01,2013-01-18 08:11:00,
2013-01-18 00:16:00,11.3,7.2,28.50,SSE,158,0.0,0.0,83,0.00,,---,0.00,VWS V14.01,2013-01-18 08:16:00,
2013-01-18 00:21:00,11.7,7.5,28.50,SSE,158,0.0,0.0,83,0.00,,---,0.00,VWS V14.01,2013-01-18 08:21:00,
2013-01-18 00:26:00,11.7,7.5,28.50,SSE,158,0.0,0.0,83,0.00,,---,0.00,VWS V14.01,2013-01-18 08:26:00,
2013-01-18 00:31:00,11.8,7.7,28.50,SSE,158,0.0,0.0,83,0.00,,---,0.00,VWS V14.01,2013-01-18 08:31:00,
2013-01-18 00:36:00,11.8,7.7,28.50,SSE,158,0.0,0.0,83,0.00,,---,0.00,VWS V14.01,2013-01-18 08:36:00,
2013-01-18 00:41:00,12.0,7.9,28.50,SSE,158,0.0,0.0,83,0.00,,---,0.00,VWS V14.01,2013-01-18 08:41:00,
2013-01-18 00:47:00,12.0,7.9,28.50,SSE,158,0.0,0.0,83,0.00,,---,0.00,VWS V14.01,2013-01-18 08:47:00,
2013-01-18 00:52:00,12.4,8.2,28.50,SSE,158,0.0,0.0,83,0.00,,---,0.00,VWS V14.01,2013-01-18 08:52:00,
2013-01-18 00:57:00,12.2,8.0,28.50,SSE,158,0.0,0.0,83,0.00,,---,0.00,VWS V14.01,2013-01-18 08:57:00,
2013-01-18 01:02:00,12.4,8.2,28.50,SSE,158,0.0,0.0,83,0.00,,---,0.00,VWS V14.01,2013-01-18 09:02:00,
2013-01-18 01:07:00,12.6,8.4,28.50,SSE,158,0.0,0.0,83,0.00,,---,0.00,VWS V14.01,2013-01-18 09:07:00,
2013-01-18 01:12:00,12.6,8.4,28.50,SSE,158,0.0,0.0,83,0.00,,---,0.00,VWS V14.01,2013-01-18 09:12:00,
2013-01-18 01:17:00,12.7,8.6,28.47,SSE,158,0.0,0.0,83,0.00,,---,0.00,VWS V14.01,2013-01-18 09:17:00,
2013-01-18 01:22:00,12.9,8.7,28.47,SSE,158,0.0,0.0,83,0.00,,---,0.00,VWS V14.01,2013-01-18 09:22:00,
2013-01-18 01:27:00,12.9,8.7,28.47,SSE,158,0.0,0.0,83,0.00,,---,0.00,VWS V14.01,2013-01-18 09:27:00,
2013-01-18 01:32:00,13.1,8.9,28.50,SSE,158,0.0,0.0,83,0.00,,---,0.00,VWS V14.01,2013-01-18 09:32:00,
2013-01-18 01:37:00,13.3,9.1,28.50,SSE,158,0.0,0.0,83,0.00,,---,0.00,VWS V14.01,2013-01-18 09:37:00,
2013-01-18 01:42:00,13.3,9.1,28.50,SSE,158,0.0,0.0,83,0.00,,---,0.00,VWS V14.01,2013-01-18 09:42:00,
2013-01-18 01:47:00,13.3,9.1,28.50,SSE,158,0.0,0.0,83,0.00,,---,0.00,VWS V14.01,2013-01-18 09:47:00,
2013-01-18 01:52:00,13.3,9.1,28.50,SSE,158,0.0,0.0,83,0.00,,---,0.00,VWS V14.01,2013-01-18 09:52:00,
2013-01-18 01:57:00,13.3,9.1,28.50,SSE,158,0.0,0.0,83,0.00,,---,0.00,VWS V14.01,2013-01-18 09:57:00,
2013-01-18 02:02:00,13.3,9.1,28.50,SSE,158,0.0,0.0,83,0.00,,---,0.00,VWS V14.01,2013-01-18 10:02:00,
2013-01-18 02:07:00,13.5,9.3,28.50,SSE,158,0.0,0.0,83,0.00,,---,0.00,VWS V14.01,2013-01-18 10:07:00,
2013-01-18 02:12:00,13.5,9.3,28.50,SSE,158,0.0,0.0,83,0.00,,---,0.00,VWS V14.01,2013-01-18 10:12:00,
2013-01-18 02:17:00,13.6,9.4,28.50,SSE,158,0.0,0.0,83,0.00,,---,0.00,VWS V14.01,2013-01-18 10:17:00,
2013-01-18 02:22:00,13.6,9.4,28.50,SSE,158,0.0,0.0,83,0.00,,---,0.00,VWS V14.01,2013-01-18 10:22:00,
2013-01-18 02:27:00,13.6,9.4,28.50,SSE,158,0.0,0.0,83,0.00,,---,0.00,VWS V14.01,2013-01-18 10:27:00,
2013-01-18 02:32:00,13.6,9.4,28.50,SSE,158,0.0,0.0,83,0.00,,---,0.00,VWS V14.01,2013-01-18 10:32:00,
2013-01-18 02:37:00,13.6,9.4,28.50,SSE,158,0.0,0.0,83,0.00,,---,0.00,VWS V14.01,2013-01-18 10:37:00,
2013-01-18 02:42:00,13.8,9.6,28.50,SSE,158,0.0,0.0,83,0.00,,---,0.00,VWS V14.01,2013-01-18 10:42:00,
2013-01-18 02:47:00,13.8,9.6,28.47,SSE,158,0.0,0.0,83,0.00,,---,0.00,VWS V14.01,2013-01-18 10:47:00,
2013-01-18 02:52:00,13.8,9.6,28.47,SSE,158,0.0,0.0,83,0.00,,---,0.00,VWS V14.01,2013-01-18 10:52:00,
2013-01-18 02:57:00,13.8,9.6,28.47,SSE,158,0.0,0.0,83,0.00,,---,0.00,VWS V14.01,2013-01-18 10:57:00,
2013-01-18 03:02:00,14.0,10.6,28.47,SSE,158,0.0,0.0,86,0.00,,---,0.00,VWS V14.01,2013-01-18 11:02:00,
2013-01-18 03:07:00,14.0,10.6,28.47,SSE,158,0.0,0.0,86,0.00,,---,0.00,VWS V14.01,2013-01-18 11:07:00,
2013-01-18 03:12:00,14.2,10.5,28.47,SSE,158,0.0,0.0,85,0.00,,---,0.00,VWS V14.01,2013-01-18 11:12:00,
2013-01-18 03:17:00,14.2,10.5,28.47,SSE,158,0.0,0.0,85,0.00,,---,0.00,VWS V14.01,2013-01-18 11:17:00,
2013-01-18 03:22:00,14.2,10.5,28.47,SSE,158,0.0,0.0,85,0.00,,---,0.00,VWS V14.01,2013-01-18 11:22:00,
2013-01-18 03:27:00,14.2,10.5,28.47,SSE,158,0.0,0.0,85,0.00,,---,0.00,VWS V14.01,2013-01-18 11:27:00,
2013-01-18 03:32:00,14.2,10.5,28.47,SSE,158,0.0,0.0,85,0.00,,---,0.00,VWS V14.01,2013-01-18 11:32:00,
2013-01-18 03:37:00,14.2,10.5,28.47,SSE,158,0.0,0.0,85,0.00,,---,0.00,VWS V14.01,2013-01-18 11:37:00,
2013-01-18 03:42:00,14.4,10.7,28.47,SSE,158,0.0,0.0,85,0.00,,---,0.00,VWS V14.01,2013-01-18 11:42:00,
2013-01-18 03:47:00,14.4,10.7,28.47,SSE,158,0.0,0.0,85,0.00,,---,0.00,VWS V14.01,2013-01-18 11:47:00,
2013-01-18 03:52:00,14.4,10.7,28.47,SSE,158,0.0,0.0,85,0.00,,---,0.00,VWS V14.01,2013-01-18 11:52:00,
2013-01-18 03:57:00,14.4,10.7,28.47,SSE,158,0.0,0.0,85,0.00,,---,0.00,VWS V14.01,2013-01-18 11:57:00,
2013-01-18 04:02:00,14.4,10.7,28.47,SSE,158,0.0,0.0,85,0.00,,---,0.00,VWS V14.01,2013-01-18 12:02:00,
2013-01-18 04:07:00,14.4,10.7,28.47,SSE,158,0.0,0.0,85,0.00,,---,0.00,VWS V14.01,2013-01-18 12:07:00,
2013-01-18 04:12:00,14.4,10.7,28.47,SSE,158,0.0,0.0,85,0.00,,---,0.00,VWS V14.01,2013-01-18 12:12:00,
2013-01-18 04:17:00,14.5,10.9,28.47,SSE,158,0.0,0.0,85,0.00,,---,0.00,VWS V14.01,2013-01-18 12:17:00,
2013-01-18 04:22:00,14.5,10.9,28.47,SSE,158,0.0,0.0,85,0.00,,---,0.00,VWS V14.01,2013-01-18 12:22:00,
2013-01-18 04:27:00,14.5,10.9,28.47,SSE,158,0.0,0.0,85,0.00,,---,0.00,VWS V14.01,2013-01-18 12:27:00,
2013-01-18 04:32:00,14.5,10.9,28.47,SSE,158,0.0,0.0,85,0.00,,---,0.00,VWS V14.01,2013-01-18 12:32:00,
2013-01-18 04:37:00,14.7,11.3,28.47,SSE,158,0.0,0.0,86,0.00,,---,0.00,VWS V14.01,2013-01-18 12:37:00,
2013-01-18 04:42:00,14.7,11.3,28.47,SSE,158,0.0,0.0,86,0.00,,---,0.00,VWS V14.01,2013-01-18 12:42:00,
2013-01-18 04:47:00,14.9,11.5,28.47,SSE,158,0.0,0.0,86,0.00,,---,0.00,VWS V14.01,2013-01-18 12:47:00,
2013-01-18 04:53:00,14.9,11.5,28.47,SSE,158,0.0,0.0,86,0.00,,---,0.00,VWS V14.01,2013-01-18 12:53:00,
2013-01-18 04:58:00,14.9,11.5,28.47,SSE,158,0.0,0.0,86,0.00,,---,0.00,VWS V14.01,2013-01-18 12:58:00,
2013-01-18 05:04:00,14.9,11.5,28.47,SSE,158,0.0,0.0,86,0.00,,---,0.00,VWS V14.01,2013-01-18 13:04:00,
2013-01-18 05:09:00,15.1,11.7,28.47,SSE,158,0.0,0.0,86,0.00,,---,0.00,VWS V14.01,2013-01-18 13:09:00,
2013-01-18 05:14:00,15.1,11.7,28.47,SSE,158,0.0,0.0,86,0.00,,---,0.00,VWS V14.01,2013-01-18 13:14:00,
2013-01-18 05:19:00,15.1,11.7,28.47,SSE,158,0.0,0.0,86,0.00,,---,0.00,VWS V14.01,2013-01-18 13:19:00,
2013-01-18 05:24:00,15.1,11.7,28.47,SSE,158,0.0,0.0,86,0.00,,---,0.00,VWS V14.01,2013-01-18 13:24:00,
2013-01-18 05:29:00,15.3,11.8,28.47,SSE,158,0.0,0.0,86,0.00,,---,0.00,VWS V14.01,2013-01-18 13:29:00,
2013-01-18 05:34:00,15.3,11.8,28.47,SSE,158,0.0,0.0,86,0.00,,---,0.00,VWS V14.01,2013-01-18 13:34:00,
2013-01-18 05:39:00,15.3,11.8,28.47,SSE,158,0.0,0.0,86,0.00,,---,0.00,VWS V14.01,2013-01-18 13:39:00,
2013-01-18 05:44:00,15.3,11.8,28.47,SSE,158,0.0,0.0,86,0.00,,---,0.00,VWS V14.01,2013-01-18 13:44:00,
2013-01-18 05:49:00,15.3,11.8,28.47,SSE,158,0.0,0.0,86,0.00,,---,0.00,VWS V14.01,2013-01-18 13:49:00,
2013-01-18 05:54:00,15.4,12.0,28.47,SSE,158,0.0,0.0,86,0.00,,---,0.00,VWS V14.01,2013-01-18 13:54:00,
2013-01-18 05:59:00,15.4,12.0,28.47,SSE,158,0.0,0.0,86,0.00,,---,0.00,VWS V14.01,2013-01-18 13:59:00,
2013-01-18 06:04:00,15.4,12.0,28.47,SSE,158,0.0,0.0,86,0.00,,---,0.00,VWS V14.01,2013-01-18 14:04:00,
2013-01-18 06:09:00,15.6,12.2,28.47,SSE,158,0.0,0.0,86,0.00,,---,0.00,VWS V14.01,2013-01-18 14:09:00,
2013-01-18 06:14:00,15.6,12.2,28.47,SSE,158,0.0,0.0,86,0.00,,---,0.00,VWS V14.01,2013-01-18 14:14:00,
2013-01-18 06:19:00,15.8,12.6,28.47,SSE,158,0.0,0.0,87,0.00,,---,0.00,VWS V14.01,2013-01-18 14:19:00,
2013-01-18 06:24:00,15.8,12.6,28.47,SSE,158,0.0,0.0,87,0.00,,---,0.00,VWS V14.01,2013-01-18 14:24:00,
2013-01-18 06:30:00,15.8,12.6,28.47,SSE,158,0.0,0.0,87,0.00,,---,0.00,VWS V14.01,2013-01-18 14:30:00,
2013-01-18 06:35:00,15.8,12.6,28.47,SSE,158,0.0,0.0,87,0.00,,---,0.00,VWS V14.01,2013-01-18 14:35:00,
2013-01-18 06:40:00,16.0,12.5,28.47,SSE,158,0.0,0.0,86,0.00,,---,0.00,VWS V14.01,2013-01-18 14:40:00,
2013-01-18 06:45:00,16.0,12.5,28.47,SSE,158,0.0,0.0,86,0.00,,---,0.00,VWS V14.01,2013-01-18 14:45:00,
2013-01-18 06:50:00,16.0,12.5,28.47,SSE,158,0.0,0.0,86,0.00,,---,0.00,VWS V14.01,2013-01-18 14:50:00,
2013-01-18 06:55:00,16.0,12.5,28.47,SSE,158,0.0,0.0,86,0.00,,---,0.00,VWS V14.01,2013-01-18 14:55:00,
2013-01-18 07:00:00,16.0,12.5,28.47,SSE,158,0.0,0.0,86,0.00,,---,0.00,VWS V14.01,2013-01-18 15:00:00,
2013-01-18 07:05:00,16.0,12.5,28.47,SSE,158,0.0,0.0,86,0.00,,---,0.00,VWS V14.01,2013-01-18 15:05:00,
2013-01-18 07:10:00,16.0,12.5,28.47,SSE,158,0.0,0.0,86,0.00,,---,0.00,VWS V14.01,2013-01-18 15:10:00,
2013-01-18 07:15:00,16.0,12.5,28.47,SSE,158,0.0,0.0,86,0.00,,---,0.00,VWS V14.01,2013-01-18 15:15:00,
2013-01-18 07:20:00,16.0,12.5,28.47,SSE,158,0.0,0.0,86,0.00,,---,0.00,VWS V14.01,2013-01-18 15:20:00,
2013-01-18 07:25:00,16.0,12.5,28.47,SSE,158,0.0,0.0,86,0.00,,---,0.00,VWS V14.01,2013-01-18 15:25:00,
2013-01-18 07:30:00,16.0,12.5,28.47,SSE,158,0.0,0.0,86,0.00,,---,0.00,VWS V14.01,2013-01-18 15:30:00,
2013-01-18 07:35:00,16.0,12.5,28.47,SSE,158,0.0,0.0,86,0.00,,---,0.00,VWS V14.01,2013-01-18 15:35:00,
2013-01-18 07:40:00,16.0,12.5,28.47,SSE,158,0.0,0.0,86,0.00,,---,0.00,VWS V14.01,2013-01-18 15:40:00,
2013-01-18 07:45:00,16.0,12.5,28.47,SSE,158,0.0,0.0,86,0.00,,---,0.00,VWS V14.01,2013-01-18 15:45:00,
2013-01-18 07:50:00,16.0,12.5,28.47,SSE,158,0.0,0.0,86,0.00,,---,0.00,VWS V14.01,2013-01-18 15:50:00,
2013-01-18 07:55:00,16.0,12.5,28.47,SSE,158,0.0,0.0,86,0.00,,---,0.00,VWS V14.01,2013-01-18 15:55:00,
2013-01-18 08:00:00,16.0,12.5,28.47,SSE,158,0.0,0.0,86,0.00,,---,0.00,VWS V14.01,2013-01-18 16:00:00,
2013-01-18 08:05:00,16.0,12.5,28.47,SSE,158,0.0,0.0,86,0.00,,---,0.00,VWS V14.01,2013-01-18 16:05:00,
2013-01-18 08:10:00,16.0,12.5,28.47,SSE,158,0.0,0.0,86,0.00,,---,0.00,VWS V14.01,2013-01-18 16:10:00,
2013-01-18 08:15:00,16.0,12.5,28.47,SSE,158,0.0,0.0,86,0.00,,---,0.00,VWS V14.01,2013-01-18 16:15:00,
2013-01-18 08:20:00,16.0,12.5,28.47,SSE,158,0.0,0.0,86,0.00,,---,0.00,VWS V14.01,2013-01-18 16:20:00,
2013-01-18 08:25:00,16.2,12.7,28.47,SSE,158,0.0,0.0,86,0.00,,---,0.00,VWS V14.01,2013-01-18 16:25:00,
2013-01-18 08:30:00,16.2,12.7,28.47,SSE,158,0.0,0.0,86,0.00,,---,0.00,VWS V14.01,2013-01-18 16:30:00,
2013-01-18 08:35:00,16.2,12.7,28.47,SSE,158,0.0,0.0,86,0.00,,---,0.00,VWS V14.01,2013-01-18 16:35:00,
2013-01-18 08:40:00,16.5,13.1,28.47,SSE,158,0.0,0.0,86,0.00,,---,0.00,VWS V14.01,2013-01-18 16:40:00,
2013-01-18 08:45:00,16.5,13.1,28.47,SSE,158,0.0,0.0,86,0.00,,---,0.00,VWS V14.01,2013-01-18 16:45:00,
2013-01-18 08:50:00,16.7,13.2,28.47,SSE,158,0.0,0.0,86,0.00,,---,0.00,VWS V14.01,2013-01-18 16:50:00,
2013-01-18 08:55:00,16.9,13.7,28.47,SSE,158,0.0,0.0,87,0.00,,---,0.00,VWS V14.01,2013-01-18 16:55:00,
2013-01-18 09:00:00,17.1,13.9,28.47,SSE,158,0.0,0.0,87,0.00,,---,0.00,VWS V14.01,2013-01-18 17:00:00,
2013-01-18 09:05:00,17.2,14.0,28.47,SSE,158,0.0,0.0,87,0.00,,---,0.00,VWS V14.01,2013-01-18 17:05:00,
2013-01-18 09:10:00,17.4,14.2,28.47,SSE,158,0.0,0.0,87,0.00,,---,0.00,VWS V14.01,2013-01-18 17:10:00,
2013-01-18 09:15:00,17.6,14.4,28.50,SSE,158,0.0,0.0,87,0.00,,---,0.00,VWS V14.01,2013-01-18 17:15:00,
2013-01-18 09:20:00,17.8,14.6,28.50,SSE,158,0.0,0.0,87,0.00,,---,0.00,VWS V14.01,2013-01-18 17:20:00,
2013-01-18 09:25:00,18.1,14.9,28.50,SSE,158,0.0,0.0,87,0.00,,---,0.00,VWS V14.01,2013-01-18 17:25:00,
2013-01-18 09:30:00,18.5,15.3,28.50,SSE,158,0.0,0.0,87,0.00,,---,0.00,VWS V14.01,2013-01-18 17:30:00,
2013-01-18 09:35:00,19.2,16.0,28.50,SSE,158,0.0,0.0,87,0.00,,---,0.00,VWS V14.01,2013-01-18 17:35:00,
2013-01-18 09:40:00,19.9,16.7,28.50,SSE,158,0.0,0.0,87,0.00,,---,0.00,VWS V14.01,2013-01-18 17:40:00,
2013-01-18 09:45:00,20.3,17.1,28.50,SSE,158,0.0,0.0,87,0.00,,---,0.00,VWS V14.01,2013-01-18 17:45:00,
2013-01-18 09:50:00,20.7,17.4,28.50,SSE,158,0.0,0.0,87,0.00,,---,0.00,VWS V14.01,2013-01-18 17:50:00,
2013-01-18 09:55:00,21.2,17.9,28.50,SSE,158,0.0,0.0,87,0.00,,---,0.00,VWS V14.01,2013-01-18 17:55:00,
2013-01-18 10:00:00,21.2,17.7,28.47,SSE,158,0.0,0.0,86,0.00,,---,0.00,VWS V14.01,2013-01-18 18:00:00,
2013-01-18 10:05:00,21.6,17.8,28.47,SSE,158,0.0,0.0,85,0.00,,---,0.00,VWS V14.01,2013-01-18 18:05:00,
2013-01-18 10:10:00,21.6,17.2,28.47,SSE,158,0.0,0.0,83,0.00,,---,0.00,VWS V14.01,2013-01-18 18:10:00,
2013-01-18 10:15:00,21.7,17.1,28.47,SSE,158,0.0,0.0,82,0.00,,---,0.00,VWS V14.01,2013-01-18 18:15:00,
2013-01-18 10:20:00,21.9,17.3,28.47,SSE,158,0.0,0.0,82,0.00,,---,0.00,VWS V14.01,2013-01-18 18:20:00,
2013-01-18 10:25:00,22.1,17.2,28.47,SSE,158,0.0,0.0,81,0.00,,---,0.00,VWS V14.01,2013-01-18 18:25:00,
2013-01-18 10:31:00,22.3,17.4,28.47,SSE,158,0.0,0.0,81,0.00,,---,0.00,VWS V14.01,2013-01-18 18:31:00,
2013-01-18 10:36:00,22.8,17.9,28.47,SSE,158,0.0,0.0,81,0.00,,---,0.00,VWS V14.01,2013-01-18 18:36:00,
2013-01-18 10:41:00,22.8,17.6,28.47,SSE,158,0.0,0.0,80,0.00,,---,0.00,VWS V14.01,2013-01-18 18:41:00,
2013-01-18 10:46:00,22.6,17.1,28.44,SSE,158,0.0,0.0,79,0.00,,---,0.00,VWS V14.01,2013-01-18 18:46:00,
2013-01-18 10:51:00,22.6,16.8,28.44,SSE,158,0.0,0.0,78,0.00,,---,0.00,VWS V14.01,2013-01-18 18:51:00,
2013-01-18 10:56:00,22.5,16.0,28.44,SSE,158,0.0,0.0,76,0.00,,---,0.00,VWS V14.01,2013-01-18 18:56:00,
2013-01-18 11:01:00,22.8,16.4,28.44,SSE,158,0.0,0.0,76,0.00,,---,0.00,VWS V14.01,2013-01-18 19:01:00,
2013-01-18 11:06:00,23.0,16.6,28.44,SSE,158,0.0,0.0,76,0.00,,---,0.00,VWS V14.01,2013-01-18 19:06:00,
2013-01-18 11:11:00,23.2,16.5,28.44,SSE,158,0.0,0.0,75,0.00,,---,0.00,VWS V14.01,2013-01-18 19:11:00,
2013-01-18 11:16:00,23.2,16.1,28.44,SSE,158,0.0,0.0,74,0.00,,---,0.00,VWS V14.01,2013-01-18 19:16:00,
2013-01-18 11:21:00,23.4,15.7,28.44,SSE,158,0.0,0.0,72,0.00,,---,0.00,VWS V14.01,2013-01-18 19:21:00,
2013-01-18 11:26:00,23.2,15.5,28.44,SSE,158,0.0,0.0,72,0.00,,---,0.00,VWS V14.01,2013-01-18 19:26:00,
2013-01-18 11:31:00,23.9,16.5,28.44,SSE,158,0.0,0.0,73,0.00,,---,0.00,VWS V14.01,2013-01-18 19:31:00,
2013-01-18 11:36:00,24.4,17.0,28.44,SSE,158,0.0,0.0,73,0.00,,---,0.00,VWS V14.01,2013-01-18 19:36:00,
2013-01-18 11:41:00,24.3,16.2,28.44,SSE,158,0.0,0.0,71,0.00,,---,0.00,VWS V14.01,2013-01-18 19:41:00,
2013-01-18 11:46:00,24.6,16.6,28.44,SSE,158,0.0,0.0,71,0.00,,---,0.00,VWS V14.01,2013-01-18 19:46:00,
2013-01-18 11:51:00,25.2,17.1,28.44,SSE,158,0.0,0.0,71,0.00,,---,0.00,VWS V14.01,2013-01-18 19:51:00,
2013-01-18 11:56:00,24.8,16.4,28.44,SSE,158,0.0,0.0,70,0.00,,---,0.00,VWS V14.01,2013-01-18 19:56:00,
2013-01-18 12:01:00,23.9,15.2,28.44,SSE,158,0.0,0.0,69,0.00,,---,0.00,VWS V14.01,2013-01-18 20:01:00,
2013-01-18 12:06:00,23.7,15.1,28.44,SSE,158,0.0,0.0,69,0.00,,---,0.00,VWS V14.01,2013-01-18 20:06:00,
2013-01-18 12:11:00,23.9,15.6,28.44,SSE,158,0.0,0.0,70,0.00,,---,0.00,VWS V14.01,2013-01-18 20:11:00,
2013-01-18 12:16:00,23.9,15.9,28.44,SSE,158,0.0,0.0,71,0.00,,---,0.00,VWS V14.01,2013-01-18 20:16:00,
2013-01-18 12:21:00,23.9,15.9,28.44,SSE,158,0.0,0.0,71,0.00,,---,0.00,VWS V14.01,2013-01-18 20:21:00,
2013-01-18 12:26:00,23.9,16.2,28.44,SSE,158,0.0,0.0,72,0.00,,---,0.00,VWS V14.01,2013-01-18 20:26:00,
2013-01-18 12:31:00,23.4,15.4,28.44,SSE,158,0.0,2.9,71,0.00,,---,0.00,VWS V14.01,2013-01-18 20:31:00,
2013-01-18 12:36:00,22.8,14.5,28.44,SSE,158,1.6,2.0,70,0.00,,---,0.00,VWS V14.01,2013-01-18 20:36:00,
2013-01-18 12:41:00,22.5,14.5,28.44,SSE,158,0.0,0.0,71,0.00,,---,0.00,VWS V14.01,2013-01-18 20:41:00,
2013-01-18 12:46:00,22.3,14.6,28.44,SSE,158,0.0,0.0,72,0.00,,---,0.00,VWS V14.01,2013-01-18 20:46:00,
2013-01-18 12:51:00,22.1,14.5,28.44,SSE,158,0.0,0.0,72,0.00,,---,0.00,VWS V14.01,2013-01-18 20:51:00,
2013-01-18 12:56:00,21.7,14.4,28.44,SSE,158,0.0,0.0,73,0.00,,---,0.00,VWS V14.01,2013-01-18 20:56:00,
2013-01-18 13:01:00,21.6,14.3,28.44,SSE,158,0.0,0.0,73,0.00,,---,0.00,VWS V14.01,2013-01-18 21:01:00,
2013-01-18 13:06:00,21.2,14.2,28.44,SSE,158,0.0,0.0,74,0.00,,---,0.00,VWS V14.01,2013-01-18 21:06:00,
2013-01-18 13:11:00,21.0,14.4,28.44,SSE,158,0.0,0.0,75,0.00,,---,0.00,VWS V14.01,2013-01-18 21:11:00,
2013-01-18 13:16:00,21.0,14.4,28.44,SSE,158,0.0,0.0,75,0.00,,---,0.00,VWS V14.01,2013-01-18 21:16:00,
2013-01-18 13:21:00,21.0,14.7,28.44,SSE,158,0.0,0.0,76,0.00,,---,0.00,VWS V14.01,2013-01-18 21:21:00,
2013-01-18 13:26:00,21.0,14.9,28.44,SSE,158,0.0,0.0,77,0.00,,---,0.00,VWS V14.01,2013-01-18 21:26:00,
2013-01-18 13:31:00,20.8,14.8,28.41,SSE,158,0.0,0.0,77,0.00,,---,0.00,VWS V14.01,2013-01-18 21:31:00,
2013-01-18 13:36:00,20.7,14.6,28.41,SSE,158,0.0,0.0,77,0.00,,---,0.00,VWS V14.01,2013-01-18 21:36:00,
2013-01-18 13:41:00,20.7,14.6,28.41,SSE,158,0.0,0.0,77,0.00,,---,0.00,VWS V14.01,2013-01-18 21:41:00,
2013-01-18 13:46:00,20.7,14.9,28.41,SSE,158,0.0,0.0,78,0.00,,---,0.00,VWS V14.01,2013-01-18 21:46:00,
2013-01-18 13:51:00,20.5,14.7,28.41,SSE,158,0.0,0.0,78,0.00,,---,0.00,VWS V14.01,2013-01-18 21:51:00,
2013-01-18 13:56:00,20.5,15.0,28.41,SSE,158,0.0,0.0,79,0.00,,---,0.00,VWS V14.01,2013-01-18 21:56:00,
2013-01-18 14:01:00,20.5,15.0,28.41,SSE,158,0.0,0.0,79,0.00,,---,0.00,VWS V14.01,2013-01-18 22:01:00,
2013-01-18 14:06:00,20.3,14.8,28.41,SSE,158,0.0,0.0,79,0.00,,---,0.00,VWS V14.01,2013-01-18 22:06:00,
2013-01-18 14:11:00,20.3,14.8,28.41,SSE,158,0.0,0.0,79,0.00,,---,0.00,VWS V14.01,2013-01-18 22:11:00,
2013-01-18 14:16:00,20.1,14.7,28.41,SSE,158,0.0,0.0,79,0.00,,---,0.00,VWS V14.01,2013-01-18 22:16:00,
2013-01-18 14:21:00,20.3,15.1,28.41,SSE,158,0.0,0.0,80,0.00,,---,0.00,VWS V14.01,2013-01-18 22:21:00,
2013-01-18 14:26:00,20.3,15.1,28.41,SSE,158,0.0,0.0,80,0.00,,---,0.00,VWS V14.01,2013-01-18 22:26:00,
2013-01-18 14:31:00,20.1,14.9,28.41,SSE,158,0.0,0.0,80,0.00,,---,0.00,VWS V14.01,2013-01-18 22:31:00,
2013-01-18 14:36:00,19.9,14.8,28.41,SSE,158,0.0,0.0,80,0.00,,---,0.00,VWS V14.01,2013-01-18 22:36:00,
2013-01-18 14:41:00,19.8,14.6,28.41,SSE,158,0.0,0.0,80,0.00,,---,0.00,VWS V14.01,2013-01-18 22:41:00,
2013-01-18 14:46:00,19.6,14.4,28.41,SSE,158,0.0,0.0,80,0.00,,---,0.00,VWS V14.01,2013-01-18 22:46:00,
2013-01-18 14:51:00,19.6,14.4,28.41,SSE,158,0.0,0.0,80,0.00,,---,0.00,VWS V14.01,2013-01-18 22:51:00,
2013-01-18 14:56:00,19.2,14.4,28.41,SSE,158,0.0,0.0,81,0.00,,---,0.00,VWS V14.01,2013-01-18 22:56:00,
2013-01-18 15:01:00,19.0,14.2,28.41,SSE,158,0.0,0.0,81,0.00,,---,0.00,VWS V14.01,2013-01-18 23:01:00,
2013-01-18 15:06:00,19.0,14.2,28.41,SSE,158,0.0,0.0,81,0.00,,---,0.00,VWS V14.01,2013-01-18 23:06:00,
2013-01-18 15:11:00,18.7,13.8,28.41,SSE,158,0.0,0.0,81,0.00,,---,0.00,VWS V14.01,2013-01-18 23:11:00,
2013-01-18 15:16:00,18.5,13.6,28.41,SSE,158,0.0,0.0,81,0.00,,---,0.00,VWS V14.01,2013-01-18 23:16:00,
2013-01-18 15:21:00,18.3,13.5,28.41,SSE,158,0.0,0.0,81,0.00,,---,0.00,VWS V14.01,2013-01-18 23:21:00,
2013-01-18 15:26:00,18.1,13.3,28.41,SSE,158,0.0,0.0,81,0.00,,---,0.00,VWS V14.01,2013-01-18 23:26:00,
2013-01-18 15:31:00,17.8,12.9,28.41,SSE,158,0.0,0.0,81,0.00,,---,0.00,VWS V14.01,2013-01-18 23:31:00,
2013-01-18 15:37:00,17.4,12.9,28.41,SSE,158,0.0,0.0,82,0.00,,---,0.00,VWS V14.01,2013-01-18 23:37:00,
2013-01-18 15:42:00,17.2,12.7,28.41,SSE,158,0.0,0.0,82,0.00,,---,0.00,VWS V14.01,2013-01-18 23:42:00,
2013-01-18 15:47:00,17.2,12.7,28.41,SSE,158,0.0,0.0,82,0.00,,---,0.00,VWS V14.01,2013-01-18 23:47:00,
2013-01-18 15:52:00,17.1,12.5,28.41,SSE,158,0.0,0.0,82,0.00,,---,0.00,VWS V14.01,2013-01-18 23:52:00,
2013-01-18 15:57:00,16.7,12.2,28.41,SSE,158,0.0,0.0,82,0.00,,---,0.00,VWS V14.01,2013-01-18 23:57:00,
2013-01-18 16:02:00,16.5,12.0,28.44,SSE,158,0.0,0.0,82,0.00,,---,0.00,VWS V14.01,2013-01-19 00:02:00,
2013-01-18 16:07:00,16.5,12.0,28.44,SSE,158,0.0,0.0,82,0.00,,---,0.00,VWS V14.01,2013-01-19 00:07:00,
2013-01-18 16:12:00,16.5,12.3,28.44,SSE,158,0.0,0.0,83,0.00,,---,0.00,VWS V14.01,2013-01-19 00:12:00,
2013-01-18 16:17:00,16.0,11.7,28.44,SSE,158,0.0,0.0,83,0.00,,---,0.00,VWS V14.01,2013-01-19 00:17:00,
2013-01-18 16:22:00,15.4,10.9,28.44,SSE,158,0.0,0.0,82,0.00,,---,0.00,VWS V14.01,2013-01-19 00:22:00,
2013-01-18 16:27:00,15.1,10.6,28.44,SSE,158,0.0,0.0,82,0.00,,---,0.00,VWS V14.01,2013-01-19 00:27:00,
2013-01-18 16:32:00,15.1,10.6,28.44,SSE,158,0.0,0.0,82,0.00,,---,0.00,VWS V14.01,2013-01-19 00:32:00,
2013-01-18 16:37:00,14.7,10.2,28.44,SSE,158,0.0,0.0,82,0.00,,---,0.00,VWS V14.01,2013-01-19 00:37:00,
2013-01-18 16:42:00,14.4,9.9,28.44,SSE,158,0.0,0.0,82,0.00,,---,0.00,VWS V14.01,2013-01-19 00:42:00,
2013-01-18 16:47:00,14.4,9.9,28.44,SSE,158,0.0,0.0,82,0.00,,---,0.00,VWS V14.01,2013-01-19 00:47:00,
2013-01-18 16:52:00,14.4,10.1,28.44,SSE,158,0.0,0.0,83,0.00,,---,0.00,VWS V14.01,2013-01-19 00:52:00,
2013-01-18 16:57:00,14.5,10.3,28.44,SSE,158,0.0,0.0,83,0.00,,---,0.00,VWS V14.01,2013-01-19 00:57:00,
2013-01-18 17:02:00,14.4,10.1,28.44,SSE,158,0.0,0.0,83,0.00,,---,0.00,VWS V14.01,2013-01-19 01:02:00,
2013-01-18 17:07:00,14.4,10.1,28.44,SSE,158,0.0,0.0,83,0.00,,---,0.00,VWS V14.01,2013-01-19 01:07:00,
2013-01-18 17:12:00,14.5,10.6,28.44,SSE,158,0.0,0.0,84,0.00,,---,0.00,VWS V14.01,2013-01-19 01:12:00,
2013-01-18 17:17:00,14.5,10.6,28.44,SSE,158,0.0,0.0,84,0.00,,---,0.00,VWS V14.01,2013-01-19 01:17:00,
2013-01-18 17:22:00,14.9,10.9,28.44,SSE,158,0.0,0.0,84,0.00,,---,0.00,VWS V14.01,2013-01-19 01:22:00,
2013-01-18 17:27:00,15.1,11.4,28.44,SSE,158,0.0,0.0,85,0.00,,---,0.00,VWS V14.01,2013-01-19 01:27:00,
2013-01-18 17:32:00,15.3,11.6,28.44,SSE,158,0.0,0.0,85,0.00,,---,0.00,VWS V14.01,2013-01-19 01:32:00,
2013-01-18 17:37:00,15.3,11.6,28.44,SSE,158,0.0,0.0,85,0.00,,---,0.00,VWS V14.01,2013-01-19 01:37:00,
2013-01-18 17:42:00,15.4,11.8,28.44,SSE,158,0.0,0.0,85,0.00,,---,0.00,VWS V14.01,2013-01-19 01:42:00,
2013-01-18 17:47:00,15.6,11.9,28.44,SSE,158,0.0,0.0,85,0.00,,---,0.00,VWS V14.01,2013-01-19 01:47:00,
2013-01-18 17:52:00,15.8,12.4,28.44,SSE,158,0.0,0.0,86,0.00,,---,0.00,VWS V14.01,2013-01-19 01:52:00,
2013-01-18 17:57:00,15.8,12.4,28.44,SSE,158,0.0,0.0,86,0.00,,---,0.00,VWS V14.01,2013-01-19 01:57:00,
2013-01-18 18:02:00,15.8,12.4,28.44,SSE,158,0.0,0.0,86,0.00,,---,0.00,VWS V14.01,2013-01-19 02:02:00,
2013-01-18 18:07:00,15.8,12.4,28.44,SSE,158,0.0,0.0,86,0.00,,---,0.00,VWS V14.01,2013-01-19 02:07:00,
2013-01-18 18:12:00,16.0,12.3,28.44,SSE,158,0.0,0.0,85,0.00,,---,0.00,VWS V14.01,2013-01-19 02:12:00,
2013-01-18 18:17:00,16.0,12.3,28.47,SSE,158,0.0,0.0,85,0.00,,---,0.00,VWS V14.01,2013-01-19 02:17:00,
2013-01-18 18:22:00,16.0,12.3,28.47,SSE,158,0.0,0.0,85,0.00,,---,0.00,VWS V14.01,2013-01-19 02:22:00,
2013-01-18 18:27:00,16.2,12.7,28.47,SSE,158,0.0,0.0,86,0.00,,---,0.00,VWS V14.01,2013-01-19 02:27:00,
2013-01-18 18:32:00,16.2,12.7,28.44,SSE,158,0.0,0.0,86,0.00,,---,0.00,VWS V14.01,2013-01-19 02:32:00,
2013-01-18 18:37:00,16.2,12.4,28.44,SSE,158,0.0,0.0,85,0.00,,---,0.00,VWS V14.01,2013-01-19 02:37:00,
2013-01-18 18:42:00,16.2,12.4,28.44,SSE,158,0.0,0.0,85,0.00,,---,0.00,VWS V14.01,2013-01-19 02:42:00,
2013-01-18 18:47:00,16.3,12.6,28.44,SSE,158,0.0,0.0,85,0.00,,---,0.00,VWS V14.01,2013-01-19 02:47:00,
2013-01-18 18:52:00,16.3,12.6,28.44,SSE,158,0.0,0.0,85,0.00,,---,0.00,VWS V14.01,2013-01-19 02:52:00,
2013-01-18 18:58:00,16.5,13.1,28.44,SSE,158,0.0,0.0,86,0.00,,---,0.00,VWS V14.01,2013-01-19 02:58:00,
2013-01-18 19:03:00,16.7,13.2,28.44,SSE,158,0.0,0.0,86,0.00,,---,0.00,VWS V14.01,2013-01-19 03:03:00,
2013-01-18 19:08:00,16.7,13.2,28.44,SSE,158,0.0,0.0,86,0.00,,---,0.00,VWS V14.01,2013-01-19 03:08:00,
2013-01-18 19:13:00,16.7,13.2,28.44,SSE,158,0.0,0.0,86,0.00,,---,0.00,VWS V14.01,2013-01-19 03:13:00,
2013-01-18 19:18:00,16.7,13.2,28.47,SSE,158,0.0,0.0,86,0.00,,---,0.00,VWS V14.01,2013-01-19 03:18:00,
2013-01-18 19:23:00,16.9,13.4,28.47,SSE,158,0.0,0.0,86,0.00,,---,0.00,VWS V14.01,2013-01-19 03:23:00,
2013-01-18 19:28:00,16.9,13.4,28.47,SSE,158,0.0,0.0,86,0.00,,---,0.00,VWS V14.01,2013-01-19 03:28:00,
2013-01-18 19:33:00,16.9,13.4,28.47,SSE,158,0.0,0.0,86,0.00,,---,0.00,VWS V14.01,2013-01-19 03:33:00,
2013-01-18 19:38:00,16.9,13.4,28.47,SSE,158,0.0,0.0,86,0.00,,---,0.00,VWS V14.01,2013-01-19 03:38:00,
2013-01-18 19:43:00,16.9,13.4,28.47,SSE,158,0.0,0.0,86,0.00,,---,0.00,VWS V14.01,2013-01-19 03:43:00,
2013-01-18 19:48:00,17.1,13.6,28.47,SSE,158,0.0,0.0,86,0.00,,---,0.00,VWS V14.01,2013-01-19 03:48:00,
2013-01-18 19:53:00,17.1,13.6,28.47,SSE,158,0.0,0.0,86,0.00,,---,0.00,VWS V14.01,2013-01-19 03:53:00,
2013-01-18 19:58:00,17.1,13.6,28.47,SSE,158,0.0,0.0,86,0.00,,---,0.00,VWS V14.01,2013-01-19 03:58:00,
2013-01-18 20:03:00,17.1,13.6,28.44,SSE,158,0.0,0.0,86,0.00,,---,0.00,VWS V14.01,2013-01-19 04:03:00,
2013-01-18 20:08:00,17.1,13.6,28.44,SSE,158,0.0,0.0,86,0.00,,---,0.00,VWS V14.01,2013-01-19 04:08:00,
2013-01-18 20:13:00,17.2,13.8,28.44,SSE,158,0.0,0.0,86,0.00,,---,0.00,VWS V14.01,2013-01-19 04:13:00,
2013-01-18 20:18:00,17.2,13.8,28.47,SSE,158,0.0,0.0,86,0.00,,---,0.00,VWS V14.01,2013-01-19 04:18:00,
2013-01-18 20:23:00,17.4,14.0,28.47,SSE,158,0.0,0.0,86,0.00,,---,0.00,VWS V14.01,2013-01-19 04:23:00,
2013-01-18 20:28:00,17.4,14.0,28.47,SSE,158,0.0,0.0,86,0.00,,---,0.00,VWS V14.01,2013-01-19 04:28:00,
2013-01-18 20:33:00,17.4,14.0,28.47,SSE,158,0.0,0.0,86,0.00,,---,0.00,VWS V14.01,2013-01-19 04:33:00,
2013-01-18 20:38:00,17.4,14.0,28.47,SSE,158,0.0,0.0,86,0.00,,---,0.00,VWS V14.01,2013-01-19 04:38:00,
2013-01-18 20:43:00,17.4,14.0,28.47,SSE,158,0.0,0.0,86,0.00,,---,0.00,VWS V14.01,2013-01-19 04:43:00,
2013-01-18 20:48:00,17.4,14.0,28.47,SSE,158,0.0,0.0,86,0.00,,---,0.00,VWS V14.01,2013-01-19 04:48:00,
2013-01-18 20:53:00,17.4,14.0,28.47,SSE,158,0.0,0.0,86,0.00,,---,0.00,VWS V14.01,2013-01-19 04:53:00,
2013-01-18 20:58:00,17.4,14.0,28.47,SSE,158,0.0,0.0,86,0.00,,---,0.00,VWS V14.01,2013-01-19 04:58:00,
2013-01-18 21:00:00,17.4,14.0,28.47,SSE,158,0.0,0.0,86,0.00,,---,0.00,VWS V14.01,2013-01-19 05:00:00,
2013-01-18 21:01:00,17.4,14.0,28.47,SSE,158,0.0,0.0,86,0.00,,---,0.00,VWS V14.01,2013-01-19 05:01:00,
2013-01-18 21:02:00,17.4,14.0,28.47,SSE,158,0.0,0.0,86,0.00,,---,0.00,VWS V14.01,2013-01-19 05:02:00,
2013-01-18 21:03:00,17.4,14.0,28.47,SSE,158,0.0,0.0,86,0.00,,---,0.00,VWS V14.01,2013-01-19 05:03:00,
2013-01-18 21:08:00,17.6,14.1,28.47,SSE,158,0.0,0.0,86,0.00,,---,0.00,VWS V14.01,2013-01-19 05:08:00,
2013-01-18 21:13:00,17.6,14.1,28.47,SSE,158,0.0,0.0,86,0.00,,---,0.00,VWS V14.01,2013-01-19 05:13:00,
2013-01-18 21:18:00,17.6,14.1,28.47,SSE,158,0.0,0.0,86,0.00,,---,0.00,VWS V14.01,2013-01-19 05:18:00,
2013-01-18 21:23:00,17.6,14.4,28.47,SSE,158,0.0,0.0,87,0.00,,---,0.00,VWS V14.01,2013-01-19 05:23:00,
2013-01-18 21:28:00,17.6,14.4,28.50,SSE,158,0.0,0.0,87,0.00,,---,0.00,VWS V14.01,2013-01-19 05:28:00,
2013-01-18 21:33:00,17.8,14.3,28.50,SSE,158,0.0,0.0,86,0.00,,---,0.00,VWS V14.01,2013-01-19 05:33:00,
2013-01-18 21:38:00,17.8,14.3,28.50,SSE,158,0.0,0.0,86,0.00,,---,0.00,VWS V14.01,2013-01-19 05:38:00,
2013-01-18 21:43:00,17.8,14.3,28.50,SSE,158,0.0,0.0,86,0.00,,---,0.00,VWS V14.01,2013-01-19 05:43:00,
2013-01-18 21:48:00,17.8,14.3,28.50,SSE,158,0.0,0.0,86,0.00,,---,0.00,VWS V14.01,2013-01-19 05:48:00,
2013-01-18 21:53:00,17.8,14.3,28.50,SSE,158,0.0,0.0,86,0.00,,---,0.00,VWS V14.01,2013-01-19 05:53:00,
2013-01-18 21:58:00,17.8,14.3,28.50,SSE,158,0.0,0.0,86,0.00,,---,0.00,VWS V14.01,2013-01-19 05:58:00,
2013-01-18 22:03:00,18.0,14.5,28.50,SSE,158,0.0,0.0,86,0.00,,---,0.00,VWS V14.01,2013-01-19 06:03:00,
2013-01-18 22:09:00,18.0,14.5,28.50,SSE,158,0.0,0.0,86,0.00,,---,0.00,VWS V14.01,2013-01-19 06:09:00,
2013-01-18 22:14:00,18.0,14.8,28.50,SSE,158,0.0,0.0,87,0.00,,---,0.00,VWS V14.01,2013-01-19 06:14:00,
2013-01-18 22:18:00,18.0,14.8,28.50,SSE,158,0.0,0.0,87,0.00,,---,0.00,VWS V14.01,2013-01-19 06:18:00,
2013-01-18 22:24:00,18.1,14.9,28.50,SSE,158,0.0,0.0,87,0.00,,---,0.00,VWS V14.01,2013-01-19 06:24:00,
2013-01-18 22:29:00,18.1,14.9,28.50,SSE,158,0.0,0.0,87,0.00,,---,0.00,VWS V14.01,2013-01-19 06:29:00,
2013-01-18 22:34:00,18.1,14.9,28.50,SSE,158,0.0,0.0,87,0.00,,---,0.00,VWS V14.01,2013-01-19 06:34:00,
2013-01-18 22:39:00,18.1,14.9,28.50,SSE,158,0.0,0.0,87,0.00,,---,0.00,VWS V14.01,2013-01-19 06:39:00,
2013-01-18 22:44:00,18.1,14.9,28.50,SSE,158,0.0,0.0,87,0.00,,---,0.00,VWS V14.01,2013-01-19 06:44:00,
2013-01-18 22:49:00,18.1,14.9,28.50,SSE,158,0.0,0.0,87,0.00,,---,0.00,VWS V14.01,2013-01-19 06:49:00,
2013-01-18 22:54:00,18.1,14.9,28.50,SSE,158,0.0,0.0,87,0.00,,---,0.00,VWS V14.01,2013-01-19 06:54:00,
2013-01-18 22:59:00,18.1,14.9,28.50,SSE,158,0.0,0.0,87,0.00,,---,0.00,VWS V14.01,2013-01-19 06:59:00,
2013-01-18 23:04:00,18.0,14.8,28.50,SSE,158,0.0,0.0,87,0.00,,---,0.00,VWS V14.01,2013-01-19 07:04:00,
2013-01-18 23:09:00,18.0,14.8,28.50,SSE,158,0.0,0.0,87,0.00,,---,0.00,VWS V14.01,2013-01-19 07:09:00,
2013-01-18 23:14:00,17.8,14.3,28.50,SSE,158,0.0,0.0,86,0.00,,---,0.00,VWS V14.01,2013-01-19 07:14:00,
2013-01-18 23:19:00,17.8,14.3,28.50,SSE,158,0.0,0.0,86,0.00,,---,0.00,VWS V14.01,2013-01-19 07:19:00,
2013-01-18 23:24:00,17.6,14.4,28.50,SSE,158,0.0,0.0,87,0.00,,---,0.00,VWS V14.01,2013-01-19 07:24:00,
2013-01-18 23:29:00,17.6,14.1,28.50,SSE,158,0.0,0.0,86,0.00,,---,0.00,VWS V14.01,2013-01-19 07:29:00,
2013-01-18 23:34:00,17.4,14.0,28.50,SSE,158,0.0,0.0,86,0.00,,---,0.00,VWS V14.01,2013-01-19 07:34:00,
2013-01-18 23:39:00,17.4,14.0,28.50,SSE,158,0.0,0.0,86,0.00,,---,0.00,VWS V14.01,2013-01-19 07:39:00,
2013-01-18 23:44:00,17.4,14.2,28.50,SSE,158,0.0,0.0,87,0.00,,---,0.00,VWS V14.01,2013-01-19 07:44:00,
2013-01-18 23:49:00,17.4,14.2,28.50,SSE,158,0.0,0.0,87,0.00,,---,0.00,VWS V14.01,2013-01-19 07:49:00,
2013-01-18 23:54:00,17.2,14.0,28.50,SSE,158,0.0,0.0,87,0.00,,---,0.00,VWS V14.01,2013-01-19 07:54:00,
2013-01-18 23:59:00,17.1,13.6,28.50,SSE,158,0.0,0.0,86,0.00,,---,0.00,VWS V14.01,2013-01-19 07:59:00,